STARLINK-11156 [DTC]

Last updated on Fri Oct 04 2024 00:02:04 GMT+0000 (Coordinated Universal Time)

1 61056U 24164G 24277.54966758 .00001234 00000+0 11534-4 0 9994 2 61056 53.1583 5.7755 0001044 113.2153 246.8978 15.76724962 3409
UTC large
Height (km)
Speed (km/s)
/
Latitude / Longitude
Inclination (degrees)
Orbital Period (minutes)
Azimuth
Elevation
Range (km)
Doppler Factor

Next 0 passes for location: London (51.5072 / 0.1276)

Sorry there are no passes over London.